2024/02/13 00:00:00,18.9, 6.1
2024/02/13 00:10:00,18.9, 5.9
2024/02/13 00:20:00,18.9, 5.5
2024/02/13 00:30:00,18.9, 5.5
2024/02/13 00:40:00,18.9, 5.4
2024/02/13 00:50:00,18.9, 6.0
2024/02/13 01:00:00,18.9, 5.7
2024/02/13 01:10:00,19.0, 5.6
2024/02/13 01:20:00,18.9, 5.8
2024/02/13 01:30:00,19.0, 5.9
2024/02/13 01:40:00,19.0, 5.6
2024/02/13 01:50:00,19.0, 6.1
2024/02/13 02:00:00,19.2, 5.7
2024/02/13 02:10:00,19.2, 5.8
2024/02/13 02:20:00,18.9, 5.8
2024/02/13 02:30:00,19.0, 5.7
2024/02/13 02:40:00,18.9, 5.3
2024/02/13 02:50:00,18.8, 5.1
2024/02/13 03:00:00,18.6, 5.2
2024/02/13 03:10:00,18.7, 5.6
2024/02/13 03:20:00,18.8, 6.1
2024/02/13 03:30:00,18.9, 5.6
2024/02/13 03:40:00,18.9, 5.7
2024/02/13 03:50:00,18.9, 5.5
2024/02/13 04:00:00,18.8, 5.7
2024/02/13 04:10:00,18.8, 5.9
2024/02/13 04:20:00,18.7, 6.6
2024/02/13 04:30:00,18.6, 6.5
2024/02/13 04:40:00,18.7, 6.7
2024/02/13 04:50:00,18.6, 6.8
2024/02/13 05:00:00,18.5, 6.8
2024/02/13 05:10:00,18.6, 6.5
2024/02/13 05:20:00,18.6, 6.4
2024/02/13 05:30:00,18.6, 6.3
2024/02/13 05:40:00,18.6, 6.1
2024/02/13 05:50:00,18.5, 6.1
2024/02/13 06:00:00,18.5, 6.2
2024/02/13 06:10:00,18.4, 6.1
2024/02/13 06:20:00,18.4, 5.9
2024/02/13 06:30:00,18.3, 5.8
2024/02/13 06:40:00,18.4, 6.1
2024/02/13 06:50:00,18.4, 5.5
2024/02/13 07:00:00,18.2, 5.7
2024/02/13 07:10:00,18.3, 6.1
2024/02/13 07:20:00,18.3, 5.9
2024/02/13 07:30:00,18.3, 6.1
2024/02/13 07:40:00,18.2, 6.4
2024/02/13 07:50:00,18.3, 5.9
2024/02/13 08:00:00,18.3, 6.1
2024/02/13 08:10:00,18.2, 6.4
2024/02/13 08:20:00,18.1, 6.5
2024/02/13 08:30:00,18.1, 7.0
2024/02/13 08:40:00,18.7,11.2
2024/02/13 08:50:00,18.9,11.7
2024/02/13 09:00:00,18.9,11.7
2024/02/13 09:10:00,19.1,12.0
2024/02/13 09:20:00,19.0,11.5
2024/02/13 09:30:00,19.0,11.1
2024/02/13 09:40:00,19.1,10.6
2024/02/13 09:50:00,19.3,11.1
2024/02/13 10:00:00,19.3,11.3
2024/02/13 10:10:00,19.2,11.1
2024/02/13 10:20:00,19.2,11.1
2024/02/13 10:30:00,19.3,11.1
2024/02/13 10:40:00,19.3,11.5
2024/02/13 10:50:00,19.5,12.4
2024/02/13 11:00:00,19.5,12.7
2024/02/13 11:10:00,19.5,13.4
2024/02/13 11:20:00,19.5,14.1
2024/02/13 11:30:00,19.6,12.9
2024/02/13 11:40:00,19.6,12.3
2024/02/13 11:50:00,19.4,13.0
2024/02/13 12:00:00,19.3,13.1
2024/02/13 12:10:00,19.0,13.7
2024/02/13 12:20:00,19.0,13.9
2024/02/13 12:30:00,18.9,13.9
2024/02/13 12:40:00,18.8,14.3
2024/02/13 12:50:00,18.1,14.2
2024/02/13 13:00:00,17.8,14.7
2024/02/13 13:10:00,17.8,14.1
2024/02/13 13:20:00,17.8,14.6
2024/02/13 13:30:00,17.6,14.7
2024/02/13 13:40:00,17.1,14.9
2024/02/13 13:50:00,16.9,14.9
2024/02/13 14:00:00,16.8,14.9
2024/02/13 14:10:00,16.5,15.2
2024/02/13 14:20:00,16.4,14.6
2024/02/13 14:30:00,16.1,15.1
2024/02/13 14:40:00,16.2,15.1
2024/02/13 14:50:00,15.9,14.9
2024/02/13 15:00:00,15.7,15.4
2024/02/13 15:10:00,15.1,15.8
2024/02/13 15:20:00,14.8,16.0
2024/02/13 15:30:00,14.6,16.5
2024/02/13 15:40:00,14.4,16.7
2024/02/13 15:50:00,14.1,16.8
2024/02/13 16:00:00,13.4,16.9
2024/02/13 16:10:00,13.2,16.4
2024/02/13 16:20:00,12.6,14.9
2024/02/13 16:30:00,12.0,15.2
2024/02/13 16:40:00,11.6,15.1
2024/02/13 16:50:00,11.4,14.3
2024/02/13 17:00:00,10.8,14.6
2024/02/13 17:10:00,10.2,11.9
2024/02/13 17:20:00,10.1,11.2
2024/02/13 17:30:00,10.5,10.2
2024/02/13 17:40:00,10.8, 9.3
2024/02/13 17:50:00,10.4, 8.1
2024/02/13 18:00:00,10.3, 7.6
2024/02/13 18:10:00,10.3, 7.6
2024/02/13 18:20:00,10.3, 7.5
2024/02/13 18:30:00,10.5, 7.2
2024/02/13 18:40:00,10.5, 6.9
2024/02/13 18:50:00,10.5, 7.0
2024/02/13 19:00:00,10.5, 6.9
2024/02/13 19:10:00,10.5, 7.0
2024/02/13 19:20:00,10.5, 7.1
2024/02/13 19:30:00,10.7, 8.2
2024/02/13 19:40:00,10.8, 8.4
2024/02/13 19:50:00,10.8, 8.3
2024/02/13 20:00:00,10.9, 8.4
2024/02/13 20:10:00,10.5, 8.6
2024/02/13 20:20:00,10.3, 8.5
2024/02/13 20:30:00,10.3, 8.4
2024/02/13 20:40:00,10.2, 8.5
2024/02/13 20:50:00,10.2, 8.3
2024/02/13 21:00:00,10.3, 8.3
2024/02/13 21:10:00,10.5, 8.7
2024/02/13 21:20:00,10.4, 8.7
2024/02/13 21:30:00,10.7, 8.7
2024/02/13 21:40:00,10.7, 9.0
2024/02/13 21:50:00,10.2, 8.6
2024/02/13 22:00:00,10.1, 8.9
2024/02/13 22:10:00,10.1, 8.8
2024/02/13 22:20:00,10.1, 8.5
2024/02/13 22:30:00,10.0, 8.7
2024/02/13 22:40:00,10.0, 8.8
2024/02/13 22:50:00,10.0, 8.8
2024/02/13 23:00:00,10.2, 8.7
2024/02/13 23:10:00,10.0, 8.4
2024/02/13 23:20:00, 9.7, 8.2
2024/02/13 23:30:00, 9.6, 8.4
2024/02/13 23:40:00, 9.5, 8.5
2024/02/13 23:50:00, 9.4, 8.9
